ELEKTRO-L 2

Last updated on May 23, 2019, 3:04 a.m. UTC

1 41105U 15074A   19142.83773550 -.00000105  00000-0  00000+0 0  9999
2 41105   0.2913 110.8373 0002986 316.7515 190.1889  1.00272130 12627
UTC
Height (km)
Latitude
Longitude
Inclination
Orbital Period
UTC large
Height (km)
Speed (km/s)
/
Latitude / Longitude
Inclination (degrees)
Orbital Period (minutes)
Azimuth
Elevation
Range (km)
Doppler Factor
iOS Compass Heading
iOS Angle

Next 30 passes for location: Hong Kong

Rise time Rise Azimuth (degrees) Set time Set Azimuth (degrees) Duration Max altitude (degrees)

No matching passes for this satellites